Weather History for Zanesville, OH

Change the Weather History Date:

Friday, January 18, 2013

  Actual Average Record
Temperature  
Mean Temperature 25 °F 29 °F  
Max Temperature 34 °F 37 °F 66 °F (1996)
Min Temperature 16 °F 20 °F -19 °F (1994)
Degree Days  
Heating Degree Days 40 36  
Month to date heating degree days 570 648  
Since 1 July heating degree days 2676 2793  
Cooling Degree Days 0 0  
Month to date cooling degree days 0 0  
Year to date cooling degree days 0 0  
Moisture  
Dew Point 15 °F    
Average Humidity 64    
Maximum Humidity 74    
Minimum Humidity 54    
Precipitation  
Precipitation 0.00 in 0.08 in 0.57 in (1960)
Month to date precipitation 0.84 1.60  
Year to date precipitation 0.84 1.60  
Sea Level Pressure  
Sea Level Pressure 30.42 in    
Wind  
Wind Speed 8 mph (SW)    
Max Wind Speed 20 mph    
Max Gust Speed 31 mph    
Visibility 10 miles    
Events      
T = Trace of Precipitation, MM = Missing Value Source: NWS Daily Summary

Daily Weather History Graph

Daily Weather History Graph

Search for Another Location

Airport:

Trip Planner

Search our weather history database for the weather conditions in past years. The results will help you decide how hot, cold, wet, or windy it might be!

Date:

Astronomy

Jan. 18, 2013 Rise Set
Actual Time 7:45 AM EST 5:30 PM EST
Civil Twilight 7:16 AM EST 6:00 PM EST
Nautical Twilight 6:43 AM EST 6:33 PM EST
Astronomical Twilight 6:10 AM EST 7:05 PM EST
Moon 11:24 AM EST (1/18) 12:19 AM EST (1/18)
Length of Visible Light 10h 43m
Length of Day
9h 44m
Waxing Crescent, 47% of the Moon is Illuminated
Jan 18
Waxing Crescent
Jan 18
First Quarter
Jan 26
Full
Feb 3
Last Quarter
Feb 10
New

Hourly Weather History & Observations

Time (EST) Temp. Windchill Dew Point Humidity Pressure Visibility Wind Dir Wind Speed Gust Speed Precip Events Conditions
12:53 AM 27.0 °F 15.2 °F 17.1 °F 66% 30.33 in 10.0 mi WNW 15.0 mph 21.9 mph N/A   Scattered Clouds
1:01 AM 26.6 °F 16.8 °F 17.6 °F 69% 30.31 in 10.0 mi WNW 10.4 mph 21.9 mph N/A   Mostly Cloudy
1:53 AM 23.0 °F 9.2 °F 10.9 °F 60% 30.38 in 10.0 mi NW 17.3 mph 23.0 mph N/A   Mostly Cloudy
2:02 AM 23.0 °F 9.2 °F 8.6 °F 54% 30.36 in 10.0 mi NW 17.3 mph 26.5 mph N/A   Scattered Clouds
2:53 AM 21.9 °F 9.8 °F 9.0 °F 58% 30.43 in 10.0 mi NW 12.7 mph - N/A   Clear
3:53 AM 19.9 °F 13.4 °F 9.0 °F 62% 30.44 in 10.0 mi WNW 4.6 mph - N/A   Clear
4:53 AM 19.9 °F 12.1 °F 8.1 °F 60% 30.47 in 10.0 mi NW 5.8 mph - N/A   Clear
5:53 AM 19.0 °F - 9.0 °F 65% 30.49 in 10.0 mi Calm Calm - N/A   Clear
6:53 AM 17.1 °F - 10.0 °F 74% 30.50 in 10.0 mi Calm Calm - N/A   Clear
7:53 AM 17.1 °F 10.0 °F 10.9 °F 77% 30.51 in 10.0 mi SSW 4.6 mph - N/A   Clear
8:53 AM 19.9 °F 13.4 °F 12.0 °F 71% 30.52 in 10.0 mi SSW 4.6 mph - N/A   Clear
9:53 AM 23.0 °F 17.0 °F 14.0 °F 68% 30.55 in 10.0 mi South 4.6 mph - N/A   Clear
10:53 AM 26.1 °F 20.5 °F 15.1 °F 63% 30.53 in 10.0 mi South 4.6 mph - N/A   Clear
11:53 AM 28.0 °F - 16.0 °F 61% 30.51 in 10.0 mi Calm Calm - N/A   Clear
12:53 PM 28.9 °F 21.1 °F 15.1 °F 56% 30.48 in 10.0 mi SSW 8.1 mph - N/A   Clear
1:53 PM 32.0 °F 23.0 °F 18.0 °F 56% 30.46 in 10.0 mi South 11.5 mph - N/A   Clear
2:53 PM 32.0 °F 22.5 °F 18.0 °F 56% 30.43 in 10.0 mi South 12.7 mph - N/A   Clear
3:53 PM 32.0 °F 22.5 °F 19.0 °F 59% 30.43 in 10.0 mi South 12.7 mph - N/A   Clear
4:53 PM 32.0 °F 22.5 °F 19.0 °F 59% 30.41 in 10.0 mi South 12.7 mph - N/A   Clear
5:53 PM 30.9 °F 21.7 °F 18.0 °F 59% 30.40 in 10.0 mi South 11.5 mph 19.6 mph N/A   Clear
6:53 PM 30.0 °F 21.7 °F 18.0 °F 61% 30.38 in 10.0 mi South 9.2 mph - N/A   Clear
7:53 PM 30.0 °F 21.1 °F 18.0 °F 61% 30.37 in 10.0 mi South 10.4 mph - N/A   Clear
8:53 PM 30.0 °F 21.7 °F 18.0 °F 61% 30.35 in 10.0 mi South 9.2 mph - N/A   Clear
9:53 PM 30.9 °F 22.8 °F 19.0 °F 61% 30.32 in 10.0 mi South 9.2 mph - N/A   Clear
10:53 PM 32.0 °F 24.2 °F 19.9 °F 61% 30.28 in 10.0 mi South 9.2 mph - N/A   Clear
11:53 PM 33.1 °F 26.1 °F 21.0 °F 61% 30.27 in 10.0 mi SSW 8.1 mph - N/A   Clear